Stations météo

réclame
Mon MeteoGroup
Kahler Asten, Allemagne (10427): Température de l'air & dewpoint: 05.07.2020 06:00:00 - 11.07.2020 06:00:00 (CEST)Kahler Asten, Allemagne (10427): Température de l'air 5cm & Température de l'air -5cm: 05.07.2020 06:00:00 - 11.07.2020 06:00:00 (CEST)Kahler Asten, Allemagne (10427): Température de l'air -20cm & Température de l'air -100cm: 05.07.2020 06:00:00 - 11.07.2020 06:00:00 (CEST)Kahler Asten, Allemagne (10427): Vitesse du vent & gusts: 05.07.2020 06:00:00 - 11.07.2020 06:00:00 (CEST)Kahler Asten, Allemagne (10427): Direction du vent: 05.07.2020 06:00:00 - 11.07.2020 06:00:00 (CEST)Kahler Asten, Allemagne (10427): visibility: 05.07.2020 06:00:00 - 11.07.2020 06:00:00 (CEST)Kahler Asten, Allemagne (10427): Ensoleillement: 05.07.2020 06:00:00 - 11.07.2020 06:00:00 (CEST)Kahler Asten, Allemagne (10427): Quantités de précipitations: 05.07.2020 06:00:00 - 11.07.2020 06:00:00 (CEST)
Date & Time tt [°C] td [°C] tt 5cm [°C] tt -5cm [°C] tt -20cm [°C] tt -100cm [°C] ff [km/h] ff [knt] fx [km/h] fx [knt] dd vv [km] sd [min] rr [mm]
11.07.2020 06:00:00 6,9 6,2 5,7 9,3 11,8 12,3 6 3 18 10 NNW 11 0 0,0
11.07.2020 05:00:00 6,9 6,2 6,3 9,3 12,0 12,3 10 6 16 8 NW 4,7 0 0,0
11.07.2020 04:00:00 7,4 7,0 7,3 9,6 12,2 12,3 10 5 24 13 NW 3,8 0 0,0
11.07.2020 03:00:00 7,6 7,2 7,4 9,6 12,5 12,3 12 7 23 12 NW 4,5 0 0,0
11.07.2020 02:00:00 7,5 7,1 6,3 9,7 12,7 12,3 12 6 18 10 NNW 6 0 0,0
11.07.2020 01:00:00 7,3 6,8 5,6 9,7 13,1 12,3 11 6 22 12 NNW 8 0 0,0
11.07.2020 00:00:00 7,7 7,2 6,6 10,5 13,3 12,3 18 10 26 14 NNW 15 0 0,0
10.07.2020 23:00:00 8,2 7,9 8,1 11,2 13,6 12,3 16 9 24 13 NNW 0,1 0 0,0
10.07.2020 22:00:00 8,4 7,5 7,4 11,8 13,8 12,3 16 9 28 15 NNW 28 0 0,0
10.07.2020 21:00:00 9,3 8,5 9,3 12,5 14,0 12,3 18 10 41 22 NW 33 14 0,0
10.07.2020 20:00:00 9,7 8,6 9,4 13,5 14,1 12,3 30 16 44 24 NW 46 2 0,0
10.07.2020 19:00:00 9,9 9,1 9,9 14,3 14,1 12,3 29 16 42 23 NW 19 0 0,6
10.07.2020 18:00:00 11,4 9,7 12,2 15,3 14,0 12,3 24 13 41 22 WNW 41 11 0,0
10.07.2020 17:00:00 10,5 9,6 11,0 14,5 14,0 12,4 27 15 50 27 NW 16 0 0,0
10.07.2020 16:00:00 11,0 10,2 11,3 15,1 14,0 12,4 29 16 50 27 WNW 2,7 1 0,0
10.07.2020 15:00:00 11,8 11,3 11,9 15,1 13,8 12,3 27 15 60 33 W 0,4 1 1,8
10.07.2020 14:00:00 13,8 12,4 14,4 15,5 13,7 12,3 31 17 61 33 W 44 1 0,2
10.07.2020 13:00:00 13,3 11,6 13,6 14,5 13,6 12,3 30 16 58 31 WSW 36 0 0,1
10.07.2020 12:00:00 12,5 11,6 12,4 13,9 13,6 12,3 31 17 53 28 WSW 4,9 0 0,0
10.07.2020 11:00:00 12,4 11,8 12,6 13,9 13,5 12,3 30 16 55 30 W 6 0 0,0
10.07.2020 10:00:00 13,3 11,8 13,3 14,3 13,4 12,3 36 20 59 32 WSW 34 0 0,0
10.07.2020 09:00:00 14,2 11,9 13,9 14,0 13,4 12,3 27 15 44 24 WSW 61 0 0,0
10.07.2020 08:00:00 13,8 12,1 13,5 13,4 13,4 12,3 24 13 40 21 WSW 39 0 0,0
10.07.2020 07:00:00 14,4 11,7 13,3 12,8 13,4 12,4 21 12 35 19 SW 47 0 0,0
10.07.2020 06:00:00 14,0 11,5 12,7 12,5 13,5 12,4 21 12 27 15 S 48 0 0,0
10.07.2020 05:00:00 13,5 11,8 12,6 12,5 13,7 12,4 21 11 24 13 SE 39 0 0,0
10.07.2020 04:00:00 12,9 10,5 11,5 12,4 13,8 12,4 12 7 16 9 SSE 71 0 0,0
10.07.2020 03:00:00 13,0 10,5 11,2 12,5 14,0 12,4 3 2 19 10 S 73 0 0,0
10.07.2020 02:00:00 13,3 10,3 11,7 12,8 14,2 12,4 18 10 22 12 NW 75 0 0,0
10.07.2020 01:00:00 13,2 10,9 11,6 13,0 14,5 12,4 18 10 23 12 WNW 65 0 0,0
10.07.2020 00:00:00 13,3 11,7 11,7 13,4 14,7 12,4 16 9 24 13 WNW 39 0 0,0
09.07.2020 23:00:00 13,6 12,1 12,0 14,2 14,9 12,4 20 11 29 15 W 35 0 0,0
09.07.2020 22:00:00 13,9 12,3 13,0 15,0 15,0 12,4 16 9 31 17 W 36 0 0,0
09.07.2020 21:00:00 14,3 13,2 13,8 15,7 15,1 12,4 20 11 34 19 W 23 0 0,1
09.07.2020 20:00:00 14,7 13,4 14,5 16,3 15,1 12,4 22 12 34 18 W 20 0 0,0
09.07.2020 19:00:00 14,5 13,6 14,5 16,7 15,1 12,4 20 11 34 18 WSW 9 0 0,7
09.07.2020 18:00:00 15,0 13,7 14,8 17,1 15,0 12,4 19 11 39 21 W 8 0 0,8
09.07.2020 17:00:00 16,3 12,4 16,2 18,2 14,7 12,4 21 11 40 21 WSW 75 1 0,0
09.07.2020 16:00:00 17,4 12,4 18,4 19,7 14,2 12,4 26 14 48 26 WSW 58 18 0,0
09.07.2020 15:00:00 16,4 12,6 17,5 18,9 13,7 12,4 30 16 49 26 WSW 52 7 0,0
09.07.2020 14:00:00 16,3 13,6 18,1 18,6 13,2 12,4 26 14 45 25 WSW 66 20 0,0
09.07.2020 13:00:00 14,8 14,2 16,4 16,0 13,0 12,4 21 12 48 26 WSW 32 4 0,0
09.07.2020 12:00:00 13,4 13,0 13,6 14,4 12,8 12,4 22 12 42 23 WSW 0,3 0 0,0
09.07.2020 11:00:00 13,2 12,9 13,8 13,7 12,7 12,5 27 15 46 25 WSW 0,3 0 0,0
09.07.2020 10:00:00 12,9 12,6 13,0 13,1 12,6 12,5 21 12 39 21 WSW 0,1 0 0,1
09.07.2020 09:00:00 12,6 12,3 12,6 12,7 12,5 12,5 21 11 39 21 SW 0,1 0 0,2
09.07.2020 08:00:00 12,4 12,0 12,4 12,4 12,5 12,5 21 12 35 19 SW 0,2 0 1,6
09.07.2020 07:00:00 12,2 11,9 12,1 12,1 12,5 12,5 23 12 34 18 WSW 0,2 0 1,4
09.07.2020 06:00:00 12,0 11,7 11,9 12,0 12,5 12,5 17 9 25 14 SW 0,2 0 0,4
09.07.2020 05:00:00 11,7 11,4 11,6 11,9 12,6 12,5 15 8 23 13 WSW 0,2 0 0,1
09.07.2020 04:00:00 11,3 11,0 11,2 11,8 12,6 12,5 16 9 28 15 SW 0,1 0 0,1
09.07.2020 03:00:00 11,0 10,7 10,9 11,8 12,7 12,5 13 7 19 11 SSW 0,2 0 0,4
09.07.2020 02:00:00 10,9 10,5 10,8 11,8 12,7 12,5 11 6 16 9 SSW 0,3 0 1,0
09.07.2020 01:00:00 10,8 10,5 10,8 11,9 12,8 12,5 12 6 18 10 SSW 0,2 0 0,8
09.07.2020 00:00:00 10,7 10,4 10,6 11,9 12,9 12,5 13 7 21 11 SW 0,2 0 0,3
08.07.2020 23:00:00 10,5 10,1 10,5 12,1 13,0 12,5 16 9 21 11 SW 0,1 0 0,0
08.07.2020 22:00:00 10,4 10,0 10,3 12,3 13,0 12,5 14 8 20 11 SW 0,1 0 0,0
08.07.2020 21:00:00 10,3 9,9 10,4 12,6 13,1 12,5 11 6 19 10 WSW 0,1 0 0,0
08.07.2020 20:00:00 10,2 9,8 10,3 13,0 13,1 12,5 12 6 22 12 SW 0,2 0 0,0
08.07.2020 19:00:00 10,2 9,9 10,6 13,4 13,0 12,5 12 7 26 14 WSW 0,2 0 0,0
08.07.2020 18:00:00 10,0 9,5 10,5 13,5 13,0 12,5 19 11 27 15 W 0,6 0 0,0
08.07.2020 17:00:00 9,9 9,5 10,5 13,5 12,9 12,5 14 7 24 13 WSW 0,5 0 0,0
08.07.2020 16:00:00 10,1 9,5 11,4 13,9 12,7 12,5 18 10 28 15 W 14 0 0,0
08.07.2020 15:00:00 9,6 9,2 10,7 13,6 12,6 12,5 17 9 26 14 W 9 0 0,1
08.07.2020 14:00:00 9,2 8,9 10,3 13,2 12,4 12,5 13 7 21 12 WSW 0,1 0 0,5
08.07.2020 13:00:00 8,8 8,4 9,6 12,7 12,4 12,5 15 8 25 13 WSW 0,3 0 0,5
08.07.2020 12:00:00 8,6 8,2 9,3 11,8 12,3 12,5 16 9 25 14 WSW 0,4 0 0,0
08.07.2020 11:00:00 8,6 8,2 9,3 11,6 12,3 12,5 15 8 24 13 WSW 4,8 0 0,1
08.07.2020 10:00:00 8,2 7,8 8,6 10,9 12,4 12,5 16 9 30 16 WSW 0,1 0 0,3
08.07.2020 09:00:00 8,0 7,6 8,4 10,6 12,5 12,5 22 12 40 21 W 3,7 0 0,7
08.07.2020 08:00:00 8,3 7,9 8,3 10,6 12,6 12,5 25 13 42 23 WSW 0,2 0 0,5
08.07.2020 07:00:00 8,3 7,3 8,1 10,6 12,8 12,5 18 10 29 16 WSW 19 0 0,3
08.07.2020 06:00:00 8,4 7,6 8,1 10,7 13,0 12,5 15 8 37 20 SW 12 0 0,3
08.07.2020 05:00:00 8,3 7,9 8,2 10,9 13,1 12,5 16 9 23 13 W 0,2 0 0,5
08.07.2020 04:00:00 8,9 7,5 8,5 11,2 13,3 12,6 14 7 19 11 WSW 25 0 0,0
08.07.2020 03:00:00 8,6 7,4 8,3 11,3 13,5 12,6 8 4 16 8 WSW 6 0 0,2
08.07.2020 02:00:00 8,6 7,5 8,2 11,4 13,7 12,6 8 4 16 8 N 12 0 0,0
08.07.2020 01:00:00 9,3 7,1 8,5 11,7 14,0 12,6 11 6 19 10 W 47 0 0,0
08.07.2020 00:00:00 10,0 7,0 9,2 12,0 14,2 12,6 12 6 16 9 W 50 0 0,0
07.07.2020 23:00:00 10,4 6,5 9,7 12,3 14,5 12,6 11 6 19 10 W 55 0 0,0
07.07.2020 22:00:00 10,7 6,7 10,1 13,0 14,8 12,6 13 7 19 10 W 58 0 0,0
07.07.2020 21:00:00 11,2 6,6 10,6 13,7 15,1 12,6 14 7 35 19 W 48 0 0,0
07.07.2020 20:00:00 11,9 6,4 11,7 14,6 15,3 12,6 18 10 35 19 W 56 0 0,0
07.07.2020 19:00:00 12,4 7,2 13,0 15,4 15,5 12,6 21 11 34 18 W 55 7 0,0
07.07.2020 18:00:00 13,2 6,0 14,2 16,2 15,6 12,6 21 11 37 20 W 53 2 0,0
07.07.2020 17:00:00 13,2 5,5 13,9 17,6 15,5 12,6 19 10 37 20 WSW 75 4 0,0
07.07.2020 16:00:00 13,7 5,5 14,5 20,2 15,1 12,6 19 10 36 19 W 75 34 0,0
07.07.2020 15:00:00 13,6 5,7 14,8 20,1 14,8 12,6 18 10 34 19 SSW 75 30 0,0
07.07.2020 14:00:00 12,6 5,8 13,8 19,6 14,3 12,6 18 10 31 17 WSW 67 4 0,0
07.07.2020 13:00:00 13,3 5,4 17,9 22,1 13,5 12,6 21 11 29 16 W 65 52 0,0
07.07.2020 12:00:00 12,0 5,5 16,1 20,8 12,7 12,7 14 7 24 13 W 45 57 0,0
07.07.2020 11:00:00 11,0 6,0 14,2 18,6 12,1 12,7 11 6 23 12 SW 75 60 0,0
07.07.2020 10:00:00 9,2 6,0 12,1 15,4 11,7 12,7 11 6 23 12 W 51 50 0,0
07.07.2020 09:00:00 8,0 5,7 10,0 12,9 11,5 12,7 14 8 20 11 W 52 44 0,0
07.07.2020 08:00:00 7,0 5,9 8,4 10,2 11,5 12,7 12 6 23 12 W 27 26 0,0
07.07.2020 07:00:00 6,2 5,4 5,7 8,8 11,7 12,7 17 9 23 12 NW 16 3 0,0
07.07.2020 06:00:00 6,4 5,6 6,0 9,0 11,8 12,7 14 8 27 15 WNW 18 0 0,0
07.07.2020 05:00:00 6,7 6,1 6,5 9,2 12,0 12,7 13 7 29 15 WNW 17 0 0,0
07.07.2020 04:00:00 6,8 6,2 6,7 9,3 12,2 12,7 18 10 42 23 WNW 6 0 0,0
07.07.2020 03:00:00 7,1 6,5 7,1 9,6 12,4 12,7 22 12 41 22 WNW 2,9 0 0,0
07.07.2020 02:00:00 7,4 6,9 7,4 9,8 12,6 12,7 18 10 31 17 W 0,1 0 0,0
07.07.2020 01:00:00 7,4 7,0 7,3 9,8 12,8 12,7 19 10 33 18 W 2,9 0 0,0
07.07.2020 00:00:00 7,5 7,1 7,5 10,3 13,0 12,7 20 11 33 18 W 0,3 0 0,0
06.07.2020 23:00:00 7,5 7,1 7,6 10,5 13,3 12,7 22 12 39 21 W 0,3 0 0,2
06.07.2020 22:00:00 7,4 6,7 7,2 10,7 13,6 12,7 15 8 48 26 W 22 0 0,3
06.07.2020 21:00:00 7,4 6,2 7,0 11,4 13,8 12,7 31 17 48 26 WNW 11 0 0,1
06.07.2020 20:00:00 8,2 6,4 7,7 12,3 14,0 12,7 27 14 58 31 WNW 51 24 0,3
06.07.2020 19:00:00 8,4 7,3 8,3 13,5 14,0 12,7 25 14 42 23 NW 21 12 1,2
06.07.2020 18:00:00 8,6 6,4 8,0 14,8 13,9 12,7 35 19 52 28 NNW 7 29 0,2
06.07.2020 17:00:00 9,5 7,8 11,1 14,2 13,9 12,7 23 12 36 19 W 37 18 0,1
06.07.2020 16:00:00 7,5 6,0 7,3 14,6 13,8 12,7 29 16 59 32 WNW 14 8 1,4
06.07.2020 15:00:00 10,1 6,8 10,8 16,6 13,5 12,7 29 16 57 31 W 33 25 0,4
06.07.2020 14:00:00 10,1 5,7 8,6 15,8 13,2 12,7 31 17 55 30 W 8 21 0,1
06.07.2020 13:00:00 10,7 6,3 13,8 14,3 13,0 12,7 29 16 58 31 W 40 19 0,0
06.07.2020 12:00:00 9,8 5,5 10,6 13,0 12,9 12,7 32 18 52 28 W 50 0 0,0
06.07.2020 11:00:00 9,4 5,6 10,3 13,0 12,8 12,7 29 16 48 26 W 44 8 0,0
06.07.2020 10:00:00 9,5 5,2 11,5 12,7 12,7 12,7 35 19 55 30 W 47 19 0,0
06.07.2020 09:00:00 8,8 5,8 9,7 11,6 12,8 12,7 28 15 52 28 W 36 13 0,0
06.07.2020 08:00:00 8,0 6,1 8,4 10,1 13,0 12,7 36 19 61 33 W 24 2 0,0
06.07.2020 07:00:00 7,8 5,8 7,9 9,8 13,2 12,7 41 22 60 33 W 29 0 0,0
06.07.2020 06:00:00 8,0 6,2 7,8 9,9 13,5 12,7 39 21 55 30 W 26 0 0,0
06.07.2020 05:00:00 8,4 6,5 8,2 10,2 13,9 12,7 37 20 56 30 W 30 0 0,0
06.07.2020 04:00:00 9,0 6,7 8,6 10,4 14,2 12,7 36 19 61 33 W 39 0 0,0
06.07.2020 03:00:00 9,8 6,5 8,9 10,9 14,6 12,7 37 20 64 34 W 50 0 0,0
06.07.2020 02:00:00 11,2 6,5 10,2 11,8 14,9 12,7 42 23 69 37 W 72 0 0,0
06.07.2020 01:00:00 12,8 7,9 11,7 12,9 15,2 12,7 45 25 71 39 W 65 0 0,0
06.07.2020 00:00:00 14,1 10,4 12,5 14,2 15,4 12,7 51 28 74 40 W 75 0 0,1
05.07.2020 23:00:00 14,8 12,0 14,2 14,3 15,6 12,7 23 13 60 32 WSW 75 0 0,0
05.07.2020 22:00:00 14,7 11,9 13,4 14,8 15,8 12,7 34 18 65 35 WSW 75 16 0,0
05.07.2020 21:00:00 15,6 12,5 14,4 16,0 15,9 12,7 36 19 61 33 WSW 75 9 0,0
05.07.2020 20:00:00 16,2 13,9 15,6 17,0 15,9 12,7 28 15 56 31 WSW 75 3 0,0
05.07.2020 19:00:00 16,7 14,7 16,5 17,4 15,8 12,7 31 17 57 31 WSW 74 11 0,0
05.07.2020 18:00:00 15,8 15,4 16,2 17,3 15,8 12,7 29 16 46 25 WSW 1,2 0 0,3
05.07.2020 17:00:00 16,4 14,6 16,3 17,8 15,7 12,7 25 14 54 29 WSW 22 0 0,0
05.07.2020 16:00:00 18,1 13,7 18,3 18,2 15,5 12,7 34 18 60 33 WSW 75 0 0,0
05.07.2020 15:00:00 17,9 13,4 18,2 18,3 15,3 12,7 29 16 54 29 SW 75 0 0,0
05.07.2020 14:00:00 18,2 13,8 19,0 18,7 14,9 12,7 33 18 58 31 SW 75 9 0,0
05.07.2020 13:00:00 17,3 13,8 19,0 17,8 14,7 12,7 29 15 56 31 SW 65 6 0,0
05.07.2020 12:00:00 15,7 14,5 15,9 16,3 14,5 12,7 32 18 54 29 SW 75 0 0,0
05.07.2020 11:00:00 14,8 14,0 14,9 15,7 14,4 12,7 36 19 57 31 WSW 23 0 0,0
05.07.2020 10:00:00 14,3 13,9 14,4 14,9 14,4 12,7 37 20 69 38 WSW 39 0 0,0
05.07.2020 09:00:00 14,0 13,6 14,1 14,6 14,4 12,7 36 19 63 34 WSW 0,5 0 0,2
05.07.2020 08:00:00 14,0 13,6 14,0 14,4 14,4 12,7 35 19 62 33 WSW 0,2 0 0,4
05.07.2020 07:00:00 14,0 13,6 14,0 14,2 14,5 12,7 36 20 55 30 WSW 0,3 0 0,6
05.07.2020 06:00:00 14,0 13,6 13,9 14,2 14,5 12,8 35 19 56 31 SW 0,1 0 0,3

tt = Température de l'air
td = dewpoint
tt 5cm = Température de l'air 5cm
tt -5cm = Température de l'air -5cm
tt -20cm = Température de l'air -20cm
tt -100cm = Température de l'air -100cm
ff = Vitesse du vent
fx = gusts
dd = Direction du vent
vv = visibility
sd = Ensoleillement
rr = Quantités de précipitations

stations d'obs. à proximité